sat.trackr.live / text

‹ back to catalog

STARLINK-37125

NORAD 68276 · 2026-055Q

PAYLOAD ACTIVE UNKNOWN

§ Identity

Operator
Country
US
Launch date
2026-03-19
Launch site
AFETR
Launch vehicle
Mass (kg)
RCS (m²)

Purposes: comms

External: N2YO · Heavens-Above · Gunter

§ Orbital elements

Epoch: 2026-09-20T01:34:51.079872Z

Period
93.85 min
Inclination
53.1570°
Eccentricity
0.0001348
Mean motion
15.34406916 rev/d
Perigee alt
461.8 km
Apogee alt
463.6 km
Semi-major
6,840.8 km
B*
4.6523e-4
RAAN
131.9473°
Arg perigee
90.6961°
Mean anomaly
269.4196°
Rev number
2,975

§ Raw data

STARLINK-371251 68276U 26055Q   26263.06586898  .00015378  00000+0  46523-3 0  99922 68276  53.1570 131.9473 0001348  90.6961 269.4196 15.34406916 29756

JSON: /api/v1/satellites/68276 · /tle

For live sub-satellite position, see the globe view (requires WebGL).

§ Visibility from observer

Set your observer location to see the next 7 days of passes ≥ 10°. The values pass through the URL so the page stays shareable.

No JS? Fill the form by hand. The geolocation button needs JavaScript.